SL-12 R/B(2), 33471

Orbit data source: Space-Track

SL-12 R/B(2), 33471 is space debris in MEO originally from a launch on Thu, 25 Dec 2008 UTC launched from the Tyuratam Missile And Space Complex (TTMTR). Debris objects in space refer to the collection of defunct objects orbiting the Earth. Examples of debris include non-operational satellites, rocket bodies, and fragments generated from explosions, collisions, or faulty payload assembly.

Loading next visibility...
Identifier
33471, 2008-067F
Orbit
MEO
Country
Flag of CISCIS
Related business
Manufacturer
RKKE
Mission
Spacecraft
Bus & Motor
BLOK DM2, 11D58M
Mass
2,440 kg wet, 2,440 kg dry
Launch date (UTC)
2008-12-25 (17 years ago)
Launch vehicle
Unknown
Launch site
Tyuratam Missile And Space Complex (TTMTR)
Object type
Payload
Rocket body
Debris
Shape & HBR
Cyl, 3.5 m
Radar Cross Section
26.008 m², Large (>1 m²)

Expand to show TLE details & history
Last TLE update: 2 days ago

TLE from 2 days ago
0 SL-12 R/B(2)
1 33471U 08067F   25303.74638714  .00000040  00000-0  00000-0 0  9996
2 33471  64.6797  76.8632 0003913 342.7222 196.5166  2.13248679131202
Epoch: 2025-10-30T17:54Z
TLE epoch observation values (Epoch: 2025-10-30T17:54:47.848Z)
Latitude
0.64705°
Longitude
-51.45571°
Altitude
19,128.234 km
Speed
3.953 km/s
True Right ascension
17h 06m 10s
True Declination
0° 38' 45"
Sunlit
Object was in daylight at epoch
Visualization orbit readout
Latitude
Unknown
Longitude
Unknown
Altitude
Unknown
Speed
Unknown
Apparent Right ascension
Unknown
Apparent Declination
Unknown
Sunlit
N/A
Visualization observer readout
Local Sidereal Time
11:57:24
Azimuth
Unknown
Elevation
Unknown
Doppler factor
Unknown
Orbital elements
Apogee altitude
19,127.792 km
Perigee altitude
19,107.839 km
Semi-major axis
25,495.952 km
Eccentricity
0.00039
Inclination
64.6797°
RAAN
76.8632°
Arg. of periapsis
342.7222°
True anomaly
196.50386°
Mean anomaly
196.5166°
Eccentric anomaly
196.51023°
Mean motion
0.53313 °/min
Orbital period
675.25 mins
BSTAR
0
Loading maneuver chart data...
Computing Atmospheric mass density...
Loading historical data...
Loading historical data...
Loading historical data...
Loading historical data...
Loading historical data...
Loading historical data...
Loading historical data...

Documentation

Showing up to 5 results
|